Location: Cahas Mountain Overlook
(37.0833°N, 80.1000°W)
Time: 11:39:59
(UTC-04:00)

A-11 Canister half - Pass Details

Date: 09 February 2026
Orbit: 1524 x 1683 km, 47.3° (Epoch: 16 March)

Event Time Altitude Azimuth Distance (km) Brightness Sun altitude
Rises 23:20:55 0° 297° (WNW) 4,676 11.9 -62.0°
Reaches altitude 10° 23:24:03 10° 302° (WNW) 3,700 11.3 -62.4°
Enters shadow 23:24:10 10° 302° (WNW) 3,665 11.2 -62.4°
